ヴィルト第4彗星

116P/Wild 4 (2022)

English version
Home page
Updated on January 17, 2021

---------------------------------------------------------------------

・ プロフィール

・ 軌道要素

Epoch 2022 June 30.0 TT = JDT 2459760.5
T 2022 July 16.91548 TT                                 MPCW
q   2.1970460            (2000.0)            P               Q
n   0.15114498     Peri.  173.29085     -0.96905436     +0.24581959
a   3.4903868      Node    20.98098     -0.22929849     -0.86265617
e   0.3705437      Incl.    3.60323     -0.09141034     -0.44203739
P   6.52
From 2469 observations 2006 Sept. 24-2017 Aug. 20, mean residual 0".6.
     Nongravitational parameters A1 = +1.51, A2 = -0.1954, A3 = +0.7109.

・ 星図

・ 光度変化

        m1 = 3.5 + 5 logΔ + 25.0 log r

---------------------------------------------------------------------

軌道要素はM.P.E.C. 2017-T14に掲載されたものです。
星図はステラナビゲータ Ver.10 (アストロアーツ) で作成したものです。
光度グラフはComet for Windowsで作成したものです。

---------------------------------------------------------------------

Copyright(C) Seiichi Yoshida (comet@aerith.net). All rights reserved.